Location: Airon
(46.8257°N, 0.0171°W)
Time: 14:12:38
(UTC+00:00)

Daily predictions for brighter satellites

Satellite Brightness Start Highest point End
(mag) Time Altitude Azimuth Time Altitude Azimuth Time Altitude Azimuth
Cosmos 2315 Rocket 4.3 20:29:38 10° SSW 20:35:57 77° W 20:42:16 10° N
Cosmos 1544 Rocket 3.6 20:31:57 10° N 20:36:19 84° W 20:40:39 10° S
PSLV R/B 4.0 20:32:58 10° NNE 20:37:09 87° ESE 20:41:20 10° SSW
Cosmos 2074 Rocket 4.3 20:32:19 10° N 20:38:28 55° ENE 20:44:34 10° SSE
Cosmos 1833 Rocket 2.9 20:36:33 10° S 20:41:54 48° ESE 20:47:17 10° NE
Cosmos 1703 3.7 20:40:31 10° SSE 20:44:09 42° E 20:47:49 10° NNE
RESURS DK-1 2.5 20:50:50 10° NNW 20:54:58 77° WSW 20:59:05 10° SSE
Cosmos 1867 4.5 20:55:07 10° NNW 21:00:18 41° NE 21:05:27 10° ESE
Cosmos 2084 Rocket 3.6 20:59:33 10° NW 21:03:24 58° NE 21:06:56 13° SE
X-37B 0.9 21:01:37 10° W 21:04:17 39° SSW 21:06:14 16° SE
SL-8 R/B 4.0 21:01:34 10° WNW 21:06:15 54° SSW 21:10:19 14° SE
Helios 1A Rocket 3.3 21:03:01 12° SE 21:06:34 51° ENE 21:10:34 10° N
Cosmos 1271 Rocket 4.4 21:05:50 10° NNW 21:09:23 32° W 21:12:52 10° SSW
Cosmos 1741 Rocket 4.3 21:04:36 10° NNW 21:09:55 70° WSW 21:15:10 10° S
IRAS Rocket 4.3 21:05:36 10° NNE 21:11:14 90° ESE 21:16:47 10° SSW
Cosmos 2154 Rocket 4.1 21:05:18 10° N 21:11:31 69° E 21:17:21 12° SSE
Cosmos 1455 4.0 21:10:39 10° NNW 21:14:01 30° W 21:17:22 10° SSW
Ariane Rocket 3.8 21:10:33 10° S 21:15:29 49° W 21:20:27 10° NNW
Cosmos 1328 4.2 21:13:35 13° SSE 21:16:56 44° E 21:20:44 10° NNE
Cosmos 2082 Rocket 2.7 21:12:40 10° S 21:17:56 39° ESE 21:23:12 10° NE
Cosmos 2360 4.3 21:13:11 10° NNW 21:18:57 85° WSW 21:23:52 14° SSE
SPOT 3 Rocket 3.8 21:15:29 10° S 21:20:40 69° WSW 21:25:54 10° NNW
CZ-2C R/B 4.0 21:17:14 10° NNE 21:21:38 47° E 21:25:23 13° S
Cosmos 2228 3.0 21:19:16 10° NNW 21:23:32 80° W 21:27:18 13° S
Cosmos 1892 Rocket 4.2 21:21:09 16° SSE 21:24:13 37° E 21:28:15 10° NNE
USA 234 4.5 21:24:40 10° ENE 21:30:41 40° NNE 21:36:43 10° NW
Resurs 01 Rocket 3.8 21:27:24 10° SW 21:30:53 22° W 21:34:23 10° NW
Cosmos 2058 Rocket 3.9 21:27:27 10° N 21:31:36 37° ENE 21:34:19 19° SE
ATLAS 2AS CENTAUR R/B 4.4 21:28:08 10° WNW 21:33:17 23° WSW 21:38:13 10° SSW
Meteor 1-21 Rocket 4.3 21:31:27 10° SSW 21:37:03 85° W 21:42:48 10° N
CZ-4B R/B 4.0 21:37:55 10° NNW 21:39:51 17° WNW 21:41:47 10° WSW
Cosmos 1331 Rocket 4.4 21:35:27 10° SSW 21:40:43 67° WNW 21:46:02 10° NNE
SPOT 5 2.9 21:37:58 15° S 21:41:31 63° WSW 21:45:49 10° NNW
Terra 1.8 21:39:42 18° SSE 21:43:15 90° SSE 21:48:03 10° NNW
Spot 2 Rocket 3.9 21:41:30 14° S 21:45:51 61° WSW 21:50:57 10° NNW
Cosmos 1892 3.3 21:44:18 24° SE 21:45:57 38° E 21:49:29 10° NNE
SJ 16-02 3.7 21:43:44 10° NNE 21:46:13 15° NE 21:48:43 10° E
FALCON 9 DEB 3.7 21:44:35 10° NW 21:47:46 49° NNE 21:50:08 16° E
Cosmos 2218 Rocket 4.5 21:47:24 10° N 21:53:38 49° ENE 21:57:46 21° SE
ASTEX 1 3.8 21:51:07 10° NNE 21:55:59 48° E 21:58:45 24° SSE
Cosmos 1606 Rocket 4.1 21:52:46 10° NNW 21:57:00 55° W 22:00:09 17° SSW
USA 276 2.7 21:54:39 10° WNW 21:57:38 52° N 21:59:52 16° E
Cosmos 1697 Rocket 3.6 21:56:14 10° NW 22:01:26 39° WSW 22:05:32 15° S
ARIANE 5 R/B 2.6 21:58:44 23° S 22:01:29 80° WSW 22:05:56 10° NNW
Cosmos 1980 Rocket 2.3 21:56:09 10° NNW 22:01:51 76° WSW 22:05:28 23° SSE
GP-B 3.3 21:58:28 10° N 22:02:50 54° E 22:05:01 27° SSE
SL-16 R/B 3.3 21:57:54 10° NNW 22:03:07 36° NE 22:07:09 16° ESE
ERS-1 Rocket 3.7 22:02:19 15° SSW 22:06:14 46° W 22:11:06 10° NNW
Cosmos 2369 4.0 22:02:13 10° NNW 22:07:52 61° WSW 22:11:30 22° S
ATLAS 5 CENTAUR R/B 1.4 22:08:26 29° S 22:09:58 48° ESE 22:13:56 10° NE
Cosmos 2341 Rocket 4.0 22:05:04 10° N 22:11:25 89° E 22:15:35 23° S
Cosmos 1302 Rocket 4.2 22:06:48 10° SSW 22:11:59 72° WNW 22:17:12 10° NNE
COSMOS 2406 3.8 22:09:28 10° SW 22:15:09 59° WNW 22:20:52 10° NNE
In-Cosmos 22 Rocket 4.2 22:14:44 24° S 22:18:08 68° E 22:23:31 10° NNE
Cosmos 1726 Rocket 4.5 22:15:11 10° NNW 22:19:15 41° W 22:22:00 19° SSW
Cosmos 1408 2.8 22:19:29 26° SSW 22:21:12 61° W 22:24:38 10° N
Okean 1-7 Rocket 3.7 22:19:49 31° SSE 22:21:46 60° E 22:26:13 10° NNE
Cosmos 968 Rocket 4.1 22:18:32 10° NNW 22:23:34 50° WSW 22:26:32 23° S
Cosmos 1869 3.3 22:21:34 10° N 22:25:27 65° E 22:26:47 38° SSE
Cosmos 1833 Rocket 4.5 22:21:02 10° WSW 22:26:01 32° NW 22:31:03 10° NNE
Cosmos 1825 2.1 22:28:50 41° SSE 22:29:59 71° E 22:33:44 10° NNE
Meteor 1-27 4.1 22:26:30 10° N 22:32:06 88° E 22:35:01 30° SSE
Spot 4 4.3 22:35:11 29° SE 22:37:19 50° ENE 22:41:57 10° N
Cosmos 1812 Rocket 4.0 22:33:12 10° N 22:37:34 50° ENE 22:39:08 34° SE
Cosmos 2322 Rocket 2.9 22:32:31 10° NNW 22:38:00 46° NE 22:41:25 22° ESE
USA 267 3.3 22:32:13 10° ENE 22:38:38 55° SE 22:45:02 10° SSW
Cosmos 2181 Rocket 4.0 22:34:39 23° S 22:38:44 87° W 22:45:02 10° N
BREEZE-M DEB (TANK) 3.7 22:38:45 10° WNW 22:41:42 70° NNE 22:51:58 10° E
Cosmos-2242 3.6 22:37:46 10° N 22:41:51 43° ENE 22:43:11 33° ESE
Cosmos 1821 Rocket 4.3 22:37:08 10° N 22:43:16 56° ENE 22:46:22 29° SE
Cosmos 1867 4.3 22:38:50 10° NW 22:43:54 40° WSW 22:46:12 27° SSW
Cosmos 2278 4.1 22:44:35 10° NW 22:50:09 54° WSW 22:52:47 30° S
Cosmos 1602 Rocket 3.5 22:48:54 42° SSE 22:50:12 68° E 22:54:31 10° NNE
SAR-Lupe-4 4.3 22:50:22 10° N 22:53:50 49° WNW 22:55:20 29° SW
Cosmos 2333 Rocket 3.8 22:50:51 10° N 22:55:52 29° NE 23:00:27 12° ESE
Cosmos 2082 Rocket 3.5 22:56:44 10° WSW 23:02:02 38° NW 23:07:21 10° NNE
ALOS 2 3.0 23:00:42 36° SE 23:02:10 52° ENE 23:06:27 10° N
Gbstr 26 Del rocket 3.5 23:05:10 39° SE 23:05:10 39° SE 23:09:25 10° ENE
Nadezhda 3 Rocket 4.1 23:02:13 33° SSE 23:04:58 62° E 23:11:03 10° NNE
Cosmos 1340 Rocket 4.0 23:05:53 26° E 23:06:12 27° E 23:09:33 10° NE
Cosmos 1606 2.8 23:06:47 10° N 23:10:38 63° E 23:11:18 52° SE
Cosmos 1626 Rocket 4.3 23:10:58 27° SW 23:12:57 46° WNW 23:17:10 10° N
Cosmos 1633 2.6 23:12:29 56° SW 23:13:00 67° W 23:16:28 10° N
USA 234 3.4 23:07:04 12° ESE 23:13:10 73° NNE 23:19:44 10° NW
Cosmos 2360 Rocket 2.7 23:07:38 10° NNW 23:13:14 55° ENE 23:16:14 27° SE
BREEZE-M DEB (TANK) 3.8 23:02:19 10° WSW 23:14:17 88° NNW 23:17:49 10° ENE
Cosmos 1953 Rocket 4.4 23:15:54 33° ESE 23:16:44 36° E 23:20:48 10° NNE
Terra 4.3 23:20:13 10° WSW 23:21:42 11° W 23:23:10 10° WNW
SJ 16-02 1.3 23:20:55 10° NNW 23:25:22 77° WSW 23:26:24 51° S
Cosmos 1825 Rocket 3.5 23:24:44 51° SSE 23:25:40 69° E 23:29:59 10° NNE
H-2A R/B 3.4 23:21:44 10° NNE 23:25:57 78° ESE 23:26:52 54° S
Cosmos 2058 2.9 23:28:03 54° SSE 23:28:49 69° E 23:33:00 10° NNE
Cosmos 2237 4.2 23:26:46 10° NNW 23:32:31 75° WSW 23:34:40 39° S
USA 276 4.0 23:30:27 10° WNW 23:31:40 21° W 23:31:40 21° W
Cosmos 2221 3.2 23:34:52 10° N 23:39:04 44° ENE 23:40:15 35° ESE
Meteor 2-2 Rocket 4.3 23:35:48 10° N 23:41:53 88° E 23:44:23 38° SSE
COSMOS 2428 4.1 23:37:24 10° NNW 23:42:32 33° NE 23:47:19 11° ESE
Cosmos 1980 Rocket 4.4 23:43:01 10° WNW 23:44:50 12° W 23:46:38 10° WSW
ISS -1.5 23:47:44 16° E 23:47:44 16° E 23:48:36 10° ENE
ADEOS Rocket 3.6 23:42:56 33° S 23:46:41 72° WSW 23:54:28 10° NNW
Cosmos 1842 Rocket 4.5 23:42:42 10° N 23:46:58 41° ENE 23:48:21 32° ESE
SL-16 R/B 2.8 23:41:59 10° NW 23:47:17 42° WSW 23:49:00 33° SSW
ERS-2 2.1 23:43:52 10° NNE 23:47:25 60° ESE 23:47:29 60° ESE
COSMOS 2487 4.0 23:49:36 21° ENE 23:49:36 21° ENE 23:51:19 10° NE
Cosmos 2219 Rocket 2.9 23:44:09 10° NNW 23:49:39 48° ENE 23:53:12 21° ESE
SL-4 R/B 1.5 23:49:35 79° WSW 23:49:47 89° NNW 23:53:29 10° ENE
SL-27 R/B 3.6 23:53:43 30° E 23:53:43 30° E 23:56:07 10° NE
Cosmos 1934 Rocket 3.9 23:47:29 10° N 23:53:36 87° W 23:56:10 38° S
ATLAS 5 CENTAUR R/B 3.6 23:51:32 10° W 23:54:45 24° NNW 23:58:21 10° NNE
